Flag for U.S.A. Weather past 2 weeks in Olathe, Kansas, U.S.A.

Now
52 °F

Clear.


Feels Like: 51 °F
Forecast: 43 / 68 °F
Wind: 5 mph from Northeast

Location: Johnson County Executive Airport

Current Time: Apr 28, 2015 at 1:17:43 AM

Latest Report: Apr 28, 2015 at 12:53 AM


Visibility: 10 mi

Pressure: 30.11 "Hg

Humidity: 57%

Dew point: 37 °F

Location of OlatheLocation

Historic Weather in Olathe — Graph

°F

Olathe temperature yesterday

Maximum temperature yesterday: 66 °F (at 3:53 PM)
Minimum temperature yesterday: 44 °F (at 6:53 AM)
Average temperature yesterday: 55 °F

Past Weeks' High & Low Weather Summary

 TemperatureHumidityPressure
High75 °F (Apr 17, 2:53 PM)100% (Apr 16, 6:53 AM)30.23 "Hg (Apr 16, 6:53 AM)
Low40 °F (Apr 22, 6:53 AM)22% (Apr 13, 1:53 PM)29.40 "Hg (Apr 25, 4:53 AM)
Average57 °F64%29.92 "Hg
* Reported Apr 12 11:53 PM — Apr 27 11:53 PM, Olathe, Weather by CustomWeather, © 2015

Note: Actual official high and low records may vary slightly from our data, if they occured in-between our weather recording intervals... More about our weather records

Advertising

Olathe weather history for previous 24 hours

 ConditionsComfort  
Time TempWeatherWind HumidityBarometerVisibility
11:53 PM
Mon, Apr 27
54 °FClear.3 mph51%30.10 "Hg10 mi
10:53 PM57 °FClear.5 mph46%30.10 "Hg10 mi
9:53 PM57 °FClear.5 mph46%30.09 "Hg10 mi
8:53 PM58 °FSunny.6 mph43%30.06 "Hg10 mi
7:53 PM61 °FSunny.9 mph38%30.05 "Hg10 mi
6:53 PM64 °FSunny.13 mph35%30.03 "Hg10 mi
5:53 PM64 °FSunny.15 mph33%30.03 "Hg10 mi
4:53 PM66 °FSunny.16 mph29%30.04 "Hg10 mi
3:53 PM66 °FSunny.16 mph32%30.04 "Hg10 mi
2:53 PM65 °FSunny.14 mph34%30.06 "Hg10 mi
1:53 PM64 °FSunny.9 mph38%30.09 "Hg10 mi
12:53 PM60 °FSunny.12 mph41%30.09 "Hg10 mi
11:53 AM59 °FSunny.9 mph44%30.13 "Hg10 mi
10:53 AM57 °FSunny.13 mph47%30.13 "Hg10 mi
9:53 AM55 °FSunny.9 mph55%30.15 "Hg10 mi
8:53 AM52 °FSunny.8 mph59%30.14 "Hg10 mi
7:53 AM47 °FSunny.6 mph74%30.12 "Hg10 mi
6:53 AM44 °FClear.7 mph76%30.10 "Hg10 mi
5:53 AM46 °FClear.No wind68%30.07 "Hg10 mi
4:53 AM46 °FClear.9 mph68%30.03 "Hg10 mi
3:53 AM46 °FClear.7 mph68%30.03 "Hg10 mi
2:53 AM47 °FClear.8 mph66%30.03 "Hg10 mi
1:53 AM48 °FClear.8 mph63%30.02 "Hg10 mi
Weather by CustomWeather, © 2015

See weather overviewHow to use our weather pages